* Astronomy

Members Login
Post Info TOPIC: Comet C/2010 DG56 (WISE)


L

Posts: 131433
Date:
RE: Comet C/2010 DG56 (WISE)
Permalink  
 


Orbital elements:
C/2010 DG56 (WISE)
Epoch 2010 May 4.0 TT = JDT 2455320.5
T 2010 May 15.55967 TT MPC
q 1.5914608 (2000.0) P Q
z +0.0148386 Peri. 318.28782 +0.70249568 +0.71132859
+/-0.0000104 Node 3.86894 +0.70878463 -0.70214390
e 0.9763850 Incl. 160.41717 +0.06421968 -0.03171079
From 30 observations 2010 Feb. 18-Aug. 10

MPEC 2010 - P52


__________________


L

Posts: 131433
Date:
Permalink  
 

Comet C/2010 DG56 (WISE) is at perihelion (1.590 AU) on the 15th May, 2010.

__________________


L

Posts: 131433
Date:
Permalink  
 

Orbital elements:
C/2010 DG56 (WISE)
T 2010 May 15.6741 TT MPC
q 1.590216 (2000.0) P Q
z +0.015764 Peri. 318.3565 +0.7035101 +0.7103280
Node 3.8552 +0.7077859 -0.7031488
e 0.974932 Incl. 160.4185 +0.0641302 -0.0318736
From 25 observations 2010 Feb. 18-Mar. 24.

MPEC 2010 - F83


__________________


L

Posts: 131433
Date:
Permalink  
 

Orbital elements:
C/2010 DG56 (WISE)
T 2010 May 13.5729 TT MPC
q 1.612228 (2000.0) P Q
Peri. 317.0731 +0.6848193 +0.7283234
Node 4.0718 +0.7257552 -0.6846177
e 1.0 Incl. 160.3957 +0.0655889 -0.0290446
From 18 observations 2010 Feb. 18-Mar. 5.

MPEC 2010 - E42


__________________
Page 1 of 1  sorted by
Quick Reply

Please log in to post quick replies.



Create your own FREE Forum
Report Abuse
Powered by ActiveBoard